Location: Chuathbaluk
(61.5726°N, 159.2454°W)
Time: 13:54:56
(UTC+00:00)

N. Korean satellite - Pass Details

Date: 04 November 2020
Orbit: 453 x 503 km, 97.2° (Epoch: 03 December)

Event Time Altitude Azimuth Distance (km) Brightness Sun altitude
Rises 03:08:01 0° 171° (S) 2,509 10.4 -5.3°
Reaches altitude 10° 03:10:05 10° 175° (S) 1,628 9.5 -5.5°
Maximum altitude 03:13:33 61° 257° (WSW) 532 7.1 -5.9°
Drops below altitude 10° 03:16:59 10° 339° (NNW) 1,619 9.2 -6.3°
Sets 03:19:03 0° 343° (NNW) 2,493 10.1 -6.5°
